Flag for U.S.A. Weather past 2 weeks in Fairbanks, Alaska, U.S.A.

Now
61 °F

Mostly cloudy.


Feels Like: 61 °F
Forecast: 45 / 64 °F
Wind: No wind

Location: Wainwright U. S. Army Airfield

Current Time: Jul 28, 2014 at 1:38:17 PM

Latest Report: Jul 28, 2014 at 12:55 PM


Visibility: 13 mi

Pressure: 30.01 "Hg

Humidity: 59%

Dew point: 46 °F

Location of FairbanksLocation

Historic Weather in Fairbanks — Graph

°F

Fairbanks temperature yesterday

Maximum temperature yesterday: 63 °F (at 2:56 PM)
Minimum temperature yesterday: 41 °F (at 3:56 AM)
Average temperature yesterday: 54 °F

Past Weeks' High & Low Weather Summary

 TemperatureHumidityPressure
High72 °F (Jul 17, 4:55 PM)100% (Jul 15, 8:55 AM)30.16 "Hg (Jul 15, 8:55 AM)
Low41 °F (Jul 27, 3:56 AM)33% (Jul 26, 3:56 PM)29.61 "Hg (Jul 18, 4:55 PM)
Average57 °F72%29.91 "Hg
* Reported Jul 13 11:56 AM — Jul 28 11:55 AM, Fairbanks, Weather by CustomWeather, © 2014

Note: Actual official high and low records may vary slightly from our data, if they occured in-between our weather recording intervals... More about our weather records

Advertising

Fairbanks weather history for previous 24 hours

 ConditionsComfort  
Time TempWeatherWind HumidityBarometerVisibility
11:55 AM
Jul 28
59 °FMostly cloudy.3 mph63%30.02 "Hg13 mi
10:55 AM57 °FCloudy.3 mph67%30.02 "Hg13 mi
9:55 AM57 °FBroken clouds.5 mph67%30.02 "Hg13 mi
8:55 AM55 °FMostly cloudy.No wind72%30.02 "Hg10 mi
7:55 AM54 °FPartly sunny.No wind77%30.03 "Hg10 mi
6:55 AM50 °FPartly sunny.No wind88%30.03 "Hg10 mi
5:56 AM50 °FMore clouds than sun.No wind86%30.04 "Hg10 mi
4:56 AM50 °FMostly cloudy.3 mph86%30.05 "Hg10 mi
3:56 AM50 °FOvercast.5 mph83%30.04 "Hg10 mi
2:56 AM49 °FMostly cloudy.3 mph90%30.04 "Hg10 mi
1:56 AM49 °FPassing clouds.No wind90%30.04 "Hg10 mi
12:56 AM53 °FPassing clouds.No wind83%30.03 "Hg10 mi
11:56 PM
Jul 27
56 °FOvercast.No wind75%30.04 "Hg10 mi
10:56 PM57 °FOvercast.7 mph74%30.04 "Hg10 mi
9:56 PM59 °FOvercast.No wind72%30.04 "Hg10 mi
8:56 PM61 °FOvercast.No wind60%30.03 "Hg10 mi
7:56 PM62 °FOvercast.6 mph50%30.03 "Hg10 mi
6:56 PM63 °FOvercast.5 mph48%30.03 "Hg10 mi
5:56 PM63 °FMostly cloudy.3 mph48%30.03 "Hg10 mi
4:56 PM63 °FOvercast.5 mph48%30.03 "Hg10 mi
3:56 PM63 °FOvercast.No wind47%30.02 "Hg10 mi
2:56 PM63 °FPartly sunny.3 mph48%30.02 "Hg10 mi
1:56 PM62 °FPartly sunny.3 mph50%30.03 "Hg10 mi
Weather by CustomWeather, © 2014

See weather overviewHow to use our weather pages